Find DMSP F-4

NORAD ID: 11389 Int'l Des: 1979-050 Owner: SAMSO Country: US operational
LEOCIRCULARRETROGRADESSO

当前视图

正在加载3D地球...

关于 DMSP F-4

正在加载描述...

即将过境

Passes for default location (London). Set your location on the main map for personalized predictions.

高度历史

Loading altitude history...

两行轨道根数

1 11389U 79050A 26149.48604360 .00000143 00000-0 73230-4 0 9993
2 11389 98.6296 104.3321 0011491 191.1508 168.9420 14.29336809373030
Epoch: May 29, 2026 • Age: 16 hours

当前状态

高度 791.6 km
速度 7.46 km/s
星下点 -14.11°S, 20.22°W
发射日期 Jun 6, 1979
运行时间 46.9 years
类型 other

技术详情

分类 Payload
质量 447.00 kg
干质量 447.00 kg
总质量 1177.00 kg
长度 6.10 m
直径 1.50 m
跨度 6.10 m
形状 Box + Pan
制造商 RCA
平台类型 Block 5D
阶段状态 Attached in Orbit
所有者/国家 SAMSO/US

Most Searched